This is the latest recevied weather packets stored in our database for station/object W1REE. If no packets are shown the sender has not sent any weather packets the latest 10 day(s).
| Time | Temp. | Humidity | Pressure | Rain* | Wind** | Luminosity | Snow |
|---|---|---|---|---|---|---|---|
| 1777611923 | 2.22° C | 97% | 1024.1 hPa | 1.27 mm | - | 0 W/m² | - |
| 1777611619 | 2.22° C | 97% | 1024.2 hPa | 0 mm | - | 0 W/m² | - |
| 1777611315 | 1.67° C | 97% | 1024.2 hPa | 0 mm | - | 0 W/m² | - |
| 1777611013 | 1.67° C | 97% | 1024.3 hPa | 0 mm | - | 0 W/m² | - |
| 1777610708 | 1.67° C | 97% | 1024.3 hPa | 1.78 mm | - | 0 W/m² | - |
| 1777610408 | 1.67° C | 97% | 1024.2 hPa | 1.78 mm | - | 0 W/m² | - |
| 1777610103 | 1.67° C | 97% | 1024.3 hPa | 0 mm | - | 0 W/m² | - |
| 1777609801 | 1.67° C | 97% | 1024.2 hPa | 1.27 mm | - | 0 W/m² | - |
| 1777609497 | 1.67° C | 97% | 1024.2 hPa | 1.27 mm | - | 0 W/m² | - |
| 1777609195 | 1.67° C | 96% | 1024.2 hPa | 1.27 mm | - | 0 W/m² | - |
| 1777608892 | 1.67° C | 96% | 1024.2 hPa | 1.78 mm | - | 0 W/m² | - |
| 1777608588 | 1.67° C | 96% | 1024.3 hPa | 1.78 mm | - | 0 W/m² | - |
| 1777608286 | 1.67° C | 96% | 1024.2 hPa | 1.78 mm | - | 0 W/m² | - |
| 1777607984 | 1.67° C | 96% | 1024.1 hPa | 1.27 mm | - | 0 W/m² | - |
| 1777607679 | 1.67° C | 96% | 1024.3 hPa | 1.27 mm | - | 0 W/m² | - |
| 1777607376 | 1.67° C | 96% | 1024.2 hPa | 1.78 mm | - | 0 W/m² | - |
| 1777607072 | 1.67° C | 95% | 1024.2 hPa | 3.05 mm | - | 0 W/m² | - |
| 1777606768 | 1.67° C | 95% | 1024.1 hPa | 1.27 mm | - | 0 W/m² | - |
| 1777606463 | 1.67° C | 95% | 1024.1 hPa | 0 mm | - | 0 W/m² | - |
| 1777606159 | 1.67° C | 95% | 1024.1 hPa | 1.78 mm | - | 0 W/m² | - |
| 1777605855 | 2.22° C | 95% | 1024 hPa | 3.05 mm | - | 0 W/m² | - |
| 1777605555 | 2.22° C | 95% | 1024 hPa | 1.27 mm | - | 0 W/m² | - |
| 1777605250 | 2.22° C | 95% | 1024 hPa | 3.05 mm | - | 0 W/m² | - |
| 1777604947 | 2.78° C | 95% | 1023.8 hPa | 1.78 mm | - | 0 W/m² | - |
| 1777604642 | 2.78° C | 95% | 1023.8 hPa | 1.27 mm | - | 0 W/m² | - |
* Rain latest hour (hover to see other rain measurements)
** Current wind speed in m/s (hover to see current wind gust speed)